This is the latest recevied weather packets stored in our database for station/object W6MAF. If no packets are shown the sender has not sent any weather packets the latest 10 day(s).
| Time | Temp. | Humidity | Pressure | Rain* | Wind** | Luminosity | Snow |
|---|---|---|---|---|---|---|---|
| 1777795776 | 14.44° C | 30% | - | 0 mm | 0.45 m/s, 190° | - | - |
| 1777795478 | 15° C | 29% | - | 0 mm | 0 m/s | - | - |
| 1777795180 | 15° C | 28% | - | 0 mm | 2.24 m/s, 158° | - | - |
| 1777794883 | 15° C | 27% | - | 0 mm | 2.68 m/s, 159° | - | - |
| 1777794582 | 15° C | 26% | - | 0 mm | 2.68 m/s, 177° | - | - |
| 1777794284 | 15.56° C | 25% | - | 0 mm | 3.13 m/s, 179° | - | - |
| 1777793986 | 15.56° C | 24% | - | 0 mm | 2.68 m/s, 162° | - | - |
| 1777793689 | 15° C | 23% | - | 0 mm | 3.58 m/s, 188° | - | - |
| 1777793391 | 15° C | 21% | - | 0 mm | 3.13 m/s, 170° | - | - |
| 1777793093 | 15° C | 20% | - | 0 mm | 2.68 m/s, 180° | - | - |
| 1777792792 | 15° C | 20% | - | 0 mm | 3.13 m/s, 174° | - | - |
| 1777792495 | 15° C | 21% | - | 0 mm | 0 m/s | - | - |
| 1777792197 | 15° C | 25% | - | 0 mm | 0 m/s | - | - |
| 1777791899 | 15.56° C | 25% | - | 0 mm | 0 m/s | - | - |
| 1777791601 | 15.56° C | 23% | - | 0 mm | 0.45 m/s, 212° | - | - |
| 1777791305 | 15.56° C | 17% | - | 0 mm | 2.68 m/s, 174° | - | - |
| 1777791003 | 15.56° C | 18% | - | 0 mm | 3.58 m/s, 169° | - | - |
| 1777790407 | 15° C | 24% | - | 0 mm | 4.02 m/s, 187° | - | - |
| 1777790110 | 15.56° C | 28% | - | 0 mm | 0 m/s | - | - |
| 1777789812 | 15.56° C | 21% | - | 0 mm | 1.34 m/s, 152° | - | - |
| 1777789514 | 16.11° C | 19% | - | 0 mm | 1.79 m/s, 179° | - | - |
| 1777789213 | 16.11° C | 18% | - | 0 mm | 2.24 m/s, 136° | - | - |
| 1777788916 | 16.11° C | 17% | - | 0 mm | 2.24 m/s, 131° | - | - |
| 1777788618 | 16.67° C | 17% | - | 0 mm | 3.58 m/s, 79° | - | - |
| 1777788320 | 16.67° C | 16% | - | 0 mm | 1.34 m/s, 136° | - | - |
* Rain latest hour (hover to see other rain measurements)
** Current wind speed in m/s (hover to see current wind gust speed)